Showing default

COSMOS 2515, 41394

Orbit data source: Space-Track

COSMOS 2515, 41394 is a payload satellite owned by VVKO VKS (CIS) in SSO that was launched on Thu, 24 Mar 2016 UTC via a SOYUZ-2-1A launch vehicle from the Plesetsk Missile And Space Complex (PKMTR). Payload-class satellites include a variety of spacecraft equipped with specific instruments for various scientific and technological missions. These include communications satellites like Starlink; space stations such as the ISS; scientific satellites like the Hubble; Earth observation satellites from companies like Planet Labs, Umbra, and HawkEye 360; GPS; miniature CubeSats for education and research; and military/defense satellites.

Loading next visibility...
Identifier
41394, 2016-020A
Orbit
SSO
Country
Flag of CISCIS
Related business
Manufacturer
Arsenal
Mission
Operational Defense Imaging
Bus & Motor
BARS, AOCS
Mass
3,700 kg wet, ~3,500 kg dry
Launch date (UTC)
2016-03-24 (10 years ago)
Launch vehicle
SOYUZ-2-1A
Launch site
Plesetsk Missile And Space Complex (PKMTR)
Object type
Payload
Rocket body
Debris
Shape & HBR
Cyl + 2 Pan, 5.0 m
Radar Cross Section
20.881 m², Large (>1 m²)

Expand to show TLE details & history
Last TLE update: 18 hours ago

TLE from 18 hours ago
0 COSMOS 2515
1 41394U 16020A   25349.00305431  .00002532  00000-0  17201-3 0  9995
2 41394  97.9818 352.5893 0023109 201.4016 158.6246 15.07162000532665
Epoch: 2025-12-15T00:04Z
TLE epoch observation values (Epoch: 2025-12-15T00:04:23.892Z)
Latitude
-0.00006°
Longitude
-92.41811°
Altitude
562.839 km
Speed
7.572 km/s
True Right ascension
23h 30m 21s
True Declination
0° 00' 00"
Sunlit
Object was in daylight at epoch
Visualization orbit readout
Latitude
Unknown
Longitude
Unknown
Altitude
Unknown
Speed
Unknown
Apparent Right ascension
Unknown
Apparent Declination
Unknown
Sunlit
N/A
Visualization observer readout
Local Sidereal Time
17:10:07
Azimuth
Unknown
Elevation
Unknown
Doppler factor
Unknown
Orbital elements
Apogee altitude
557.877 km
Perigee altitude
525.894 km
Semi-major axis
6,920.023 km
Eccentricity
0.00231
Inclination
97.9818°
RAAN
352.5893°
Arg. of periapsis
201.4016°
True anomaly
158.72086°
Mean anomaly
158.6246°
Eccentric anomaly
158.67275°
Mean motion
3.77035 °/min
Orbital period
95.48 mins
BSTAR
0.00017201
Loading maneuver chart data...
Computing Atmospheric mass density...
Loading historical data...
Loading historical data...
Loading historical data...
Loading historical data...
Loading historical data...
Loading historical data...
Loading historical data...
Other satellites on launch #20 in the year 2016 (2016-03-24 UTC)

Documentation

Showing up to 5 results
|